Regional Weather Roundup
Issued by NWS

Home | Current Version | Previous Version | Text Only | Print | Product List | Glossary On
Versions: 1 2 3 4 5 6 7 8 9 10 11 12 13 14 15 16 17 18 19 20 21 22 23 24 25 26 27 28 29 30 31 32 33 34 35 36 37 38 39 40 41 42 43 44 45 46 47 48 49 50
431
ASUS42 KKEY 241610
RWRKEY

FLORIDA REGIONAL WEATHER ROUNDUP FOR THE FLORIDA KEYS
NATIONAL WEATHER SERVICE KEY WEST FLORIDA
1200 PM EDT SUN SEP 24 2017

...SOUTH FLORIDA AND THE KEYS...

CITY           SKY/WX    TMP DP  RH WIND       PRES   REMARKS
FORT MYERS     PTSUNNY   87  76  69 E7        29.89S HX  97
SW REGIONAL AP MOSUNNY   86  73  65 E7        29.89S HX  93
NAPLES         MOSUNNY   86  74  67 E7        29.88F HX  94
MIAMI          MOSUNNY   89  74  60 CALM      29.88F HX  98
WEST KENDALL   MOSUNNY   87  74  64 CALM      29.88F HX  95
HOMESTEAD      LGT RAIN  82  79  89 NE6       29.87S HX  93
MARATHON       MOSUNNY   87  75  67 E5        29.88S HX  96
KEY WEST INTL  SUNNY     86  74  67 SW5       29.89S HX  94

...INTERNATIONAL WEATHER...

CITY           SKY/WX    TMP DP  RH WIND       PRES   REMARKS
NASSAU BAHAMAS MOSUNNY   90  75  62 NW10      29.87R HX 100
CANCUN MEXICO  PTSUNNY   88  75  66 E6        29.86R HX  97
COZUMEL MEXICO MOSUNNY   86  77  74 NE5       29.84S HX  97

ADJACENT COASTAL WATERS...

STATION/POSITION TIME  SKY/WX   TEMP    WIND        PRES    WAVE
                                AIR SEA DIR/SP/G            HT/PER
                 (UTC)          (F)     (DEG/KT/KT) (MB)    (FT/S)
PULASKI SHOAL LI 1600            86      CALM  /  1 1012.3S
SAND KEY         1550            83                 1012.7S
LONG KEY         NOT AVBL
MOLASSES REEF    1500            84 85  360/  4/  5 1012.2R
FOWEY ROCKS      1500            81 85  360/ 10/ 11 1012.8R
Buoy 42097       1530               85                N/A     2/ 5

$$




USA.gov is the U.S. government's official web portal to all federal, state and local government web resources and services.